Location: Mountain_View
(35.6670°N, 81.4000°W)
Time: 05:26:40
(UTC-05:00)

Amateur Radio Satellites - All Passes

Search period start: 21 January 2018 04:56
Search period end: 22 January 2018 04:56
Location: Mountain_View, 35.6670°N, 81.4000°W

Satellite Date Start Highest point End Downlink Frequencies (MHz)
Time Altitude Azimuth
nSIGHT-1 21 Jan 04:57:16 04:58:54 13° 232° (SW) 05:00:33 .
ISS 21 Jan 05:10:42 05:12:45 16° 232° (SW) 05:14:48 437.550
CUBESAT XI-V 21 Jan 05:11:12 05:13:17 13° 268° (W) 05:15:21 437.345
STARS 21 Jan 05:11:57 05:15:54 35° 71° (ENE) 05:19:52 437.465
AO-7 21 Jan 05:18:30 05:25:55 37° 298° (WNW) 05:33:18 .
M-CUBED/EXP-1 PRIME 21 Jan 05:20:24 05:23:42 65° 106° (ESE) 05:26:54 437.505
DOVE 4 21 Jan 05:21:07 05:25:31 80° 284° (WNW) 05:30:10 437.250
ITAMSAT 1 21 Jan 05:22:08 05:26:18 25° 293° (WNW) 05:30:29 435.822/435.867
XW-2B 21 Jan 05:32:14 05:34:08 13° 93° (E) 05:36:02 145.730 - 145.750
LilacSat-2 21 Jan 05:59:15 06:02:44 35° 98° (E) 06:06:11 437.200
XW-2C 21 Jan 06:01:15 06:04:41 33° 98° (E) 06:08:05 145.795 - 145.815
SO-50 21 Jan 06:22:28 06:26:19 28° 308° (NW) 06:30:15 436.795
FALCONSAT 3 21 Jan 06:25:01 06:28:42 89° 180° (S) 06:32:23 435.103
STRAND 1 21 Jan 06:32:51 06:37:28 36° 71° (ENE) 06:42:08 437.568
KAITUO 1B 21 Jan 06:35:05 06:38:45 67° 101° (E) 06:42:23 145.475/437.950
XW-2F 21 Jan 06:37:10 06:40:54 82° 282° (WNW) 06:44:36 145.980 - 146.000
CUTE 1.7 + AOD 2 21 Jan 06:38:38 06:42:07 25° 96° (E) 06:45:36 437.475
NUDT-PHONESAT 21 Jan 06:45:39 06:49:20 89° 106° (ESE) 06:52:58 437.300
XW-2D 21 Jan 06:47:09 06:50:48 51° 285° (WNW) 06:54:24 145.860 - 145.880
STARS 21 Jan 06:49:27 06:52:18 17° 266° (W) 06:55:09 437.465
CUBEBUG 2 21 Jan 06:52:48 06:56:47 26° 95° (E) 07:00:44 437.445
CUTE-I 21 Jan 06:55:46 07:01:06 82° 285° (WNW) 07:06:26 437.470
UWE-3 21 Jan 06:58:36 07:01:27 16° 92° (E) 07:04:15 435.000/436.395/437.385
HO-68 21 Jan 07:00:58 07:07:54 51° 101° (E) 07:14:48 435.675
XW-2B 21 Jan 07:05:01 07:08:22 31° 287° (WNW) 07:11:41 145.730 - 145.750
ZACube-1 21 Jan 07:22:06 07:24:29 14° 92° (E) 07:26:49 437.345
AO-73 21 Jan 07:28:39 07:31:05 14° 92° (E) 07:33:30 145.935
LilacSat-2 21 Jan 07:34:53 07:36:38 13° 292° (WNW) 07:38:23 437.200
XW-2C 21 Jan 07:36:42 07:38:30 13° 292° (WNW) 07:40:18 145.795 - 145.815
FO-29 21 Jan 07:38:36 07:45:35 72° 75° (ENE) 07:51:45 435.910
AAUSAT CUBESAT 2 21 Jan 07:41:42 07:45:24 32° 97° (E) 07:49:05 437.432
RS-15 21 Jan 07:44:23 07:56:15 58° 111° (ESE) 08:08:03 29.354- 29.394
SEEDS 21 Jan 08:00:43 08:04:46 53° 285° (WNW) 08:08:48 437.485
Oscar 11 21 Jan 08:00:52 08:04:01 20° 94° (E) 08:07:09 .
FALCONSAT 3 21 Jan 08:04:08 08:07:42 52° 196° (SSW) 08:11:16 435.103
STRAND 1 21 Jan 08:12:48 08:16:42 22° 265° (W) 08:20:37 437.568
CUTE 1.7 + AOD 2 21 Jan 08:14:33 08:17:47 22° 290° (WNW) 08:21:00 437.475
TIGRISAT 21 Jan 08:24:51 08:27:30 16° 66° (ENE) 08:30:10 435.000
CUBEBUG 2 21 Jan 08:29:15 08:33:17 28° 290° (WNW) 08:37:16 437.445
UWE-3 21 Jan 08:33:38 08:38:03 43° 287° (WNW) 08:42:23 435.000/436.395/437.385
XW-2A 21 Jan 08:35:07 08:38:22 50° 284° (WNW) 08:41:35 145.665 - 145.685
UNISAT 6 21 Jan 08:39:08 08:42:43 25° 69° (ENE) 08:46:24 437.425
HO-68 21 Jan 08:49:23 08:55:14 28° 297° (WNW) 09:01:04 435.675
BEESAT 3 21 Jan 08:56:13 08:59:32 26° 112° (ESE) 09:02:51 437.485
ZACube-1 21 Jan 08:56:37 09:00:57 45° 286° (WNW) 09:05:13 437.345
YUBILEINY 21 Jan 09:01:48 09:07:35 19° 67° (ENE) 09:13:19 435.215
AO-73 21 Jan 09:03:12 09:07:30 44° 287° (WNW) 09:11:43 145.935
AAUSAT CUBESAT 2 21 Jan 09:17:56 09:20:33 17° 292° (WNW) 09:23:11 437.432
FO-29 21 Jan 09:26:47 09:30:52 16° 266° (W) 09:34:43 435.910
PCSat 21 Jan 09:29:22 09:34:33 50° 112° (ESE) 09:39:46 145.827
Oscar 11 21 Jan 09:36:23 09:40:08 29° 289° (WNW) 09:43:52 .
FALCONSAT 3 21 Jan 09:44:04 09:46:21 16° 209° (SSW) 09:48:37 435.103
BEESAT 2 21 Jan 09:45:15 09:48:23 22° 111° (ESE) 09:51:33 435.950
DELFI C3 21 Jan 09:49:49 09:53:43 66° 101° (E) 09:57:37 145.870
RS-15 21 Jan 09:57:36 10:09:06 44° 312° (NW) 10:20:31 29.354- 29.394
TIGRISAT 21 Jan 09:59:37 10:03:46 42° 262° (W) 10:08:03 435.000
JUGNU 21 Jan 10:04:15 10:06:39 13° 169° (S) 10:09:03 437.505
UNISAT 6 21 Jan 10:15:39 10:19:18 25° 265° (W) 10:23:02 437.425
PRISM 21 Jan 10:19:16 10:23:18 73° 77° (ENE) 10:27:22 437.425
Max Valier Satellite 21 Jan 10:24:18 10:27:58 64° 284° (WNW) 10:31:35 145.860
O/OREOS (USA 219) 21 Jan 10:30:37 10:35:02 56° 68° (ENE) 10:39:25 437.305
BEESAT 3 21 Jan 10:33:46 10:36:58 23° 307° (NW) 10:40:12 437.485
POLYITAN 1 21 Jan 10:34:27 10:36:27 13° 66° (ENE) 10:38:26 437.675
AIST 2D 21 Jan 10:40:34 10:43:59 51° 76° (ENE) 10:47:25 435.315
EO-88 21 Jan 10:42:07 10:45:41 58° 283° (WNW) 10:49:14 145.990 - 145.960
NANOSAT C BR1 21 Jan 10:48:52 10:51:34 17° 68° (ENE) 10:54:17 145.865
YUBILEINY 21 Jan 10:56:35 11:05:19 79° 266° (W) 11:13:58 435.215
QB50P2 21 Jan 11:02:13 11:05:56 31° 72° (ENE) 11:09:41 145.880/145.840
PCSat 21 Jan 11:14:08 11:18:12 21° 308° (NW) 11:22:18 145.827
BEESAT 2 21 Jan 11:22:32 11:25:57 26° 307° (NW) 11:29:24 435.950
AO-85 21 Jan 11:27:52 11:31:25 36° 114° (ESE) 11:35:12 145.980
DUCHIFAT 1 21 Jan 11:30:49 11:34:47 44° 73° (ENE) 11:38:48 145.980
EO-79 21 Jan 11:32:26 11:36:35 65° 76° (ENE) 11:40:48 145.935-145.965
SPROUT 21 Jan 11:46:30 11:48:23 13° 92° (E) 11:50:14 437.525
JUGNU 21 Jan 11:51:19 11:54:52 16° 179° (S) 11:58:24 437.505
ESTCUBE 1 21 Jan 11:53:41 11:58:11 78° 102° (ESE) 12:02:38 437.505/2401.250
LO-87 21 Jan 11:59:54 12:03:27 52° 284° (WNW) 12:06:57 145.935 - 145.965
Gurwin Techsat 1B 21 Jan 12:03:31 12:05:48 13° 62° (ENE) 12:08:06 435.225
POLYITAN 1 21 Jan 12:07:42 12:11:45 46° 261° (W) 12:15:52 437.675
AO-91 21 Jan 12:07:55 12:08:13 10° 66° (ENE) 12:08:30 145.960
Oscar 19 21 Jan 12:11:58 12:15:47 21° 66° (ENE) 12:19:35 437.125/150
O/OREOS (USA 219) 21 Jan 12:12:46 12:13:51 11° 262° (W) 12:14:56 437.305
RS-15 21 Jan 12:19:16 12:26:10 16° 343° (NNW) 12:32:57 29.354- 29.394
NANOSAT C BR1 21 Jan 12:23:08 12:26:57 34° 262° (W) 12:30:49 145.865
BUGSAT 1 21 Jan 12:30:18 12:34:10 45° 73° (ENE) 12:38:06 437.445
QB50P2 21 Jan 12:38:49 12:41:44 18° 266° (W) 12:44:40 145.880/145.840
YUBILEINY 21 Jan 12:57:40 13:00:33 12° 284° (WNW) 13:03:26 435.215
DUCHIFAT 1 21 Jan 13:08:51 13:10:38 12° 268° (W) 13:12:25 145.980
AO-85 21 Jan 13:09:14 13:11:58 17° 312° (NW) 13:14:50 145.980
SO-50 21 Jan 13:16:41 13:19:08 14° 46° (NE) 13:21:35 436.795
SPROUT 21 Jan 13:20:20 13:24:27 45° 286° (WNW) 13:28:33 437.525
VELOX 1 21 Jan 13:27:17 13:31:40 79° 286° (WNW) 13:36:04 145.980
Gurwin Techsat 1B 21 Jan 13:39:46 13:45:04 73° 258° (WSW) 13:50:23 435.225
JUGNU 21 Jan 13:40:17 13:43:05 14° 189° (S) 13:45:53 437.505
AO-91 21 Jan 13:41:17 13:44:20 32° 262° (W) 13:47:26 145.960
DX 1 21 Jan 13:42:14 13:45:50 25° 97° (E) 13:49:25 434.975-435.025
Oscar 19 21 Jan 13:49:52 13:54:45 42° 261° (W) 13:59:41 437.125/150
SRMSAT 21 Jan 14:00:58 14:04:27 16° 174° (S) 14:07:57 437.500
BUGSAT 1 21 Jan 14:08:24 14:09:44 11° 268° (W) 14:11:04 437.445
AO-7 21 Jan 14:21:01 14:28:56 50° 66° (ENE) 14:36:53 .
RS-15 21 Jan 14:38:28 14:45:49 18° 21° (NNE) 14:52:56 29.354- 29.394
50 SAT 21 Jan 14:52:08 14:54:55 31° 287° (WNW) 14:57:43 437.505
SO-50 21 Jan 14:55:22 15:00:05 74° 242° (WSW) 15:04:51 436.795
ITAMSAT 1 21 Jan 14:57:23 15:02:10 40° 71° (ENE) 15:06:59 435.822/435.867
ITUPSAT 1 21 Jan 15:01:47 15:05:01 18° 94° (E) 15:08:14 437.325
UKube-1 21 Jan 15:04:33 15:08:47 57° 286° (WNW) 15:13:00 .
DX 1 21 Jan 15:18:23 15:21:52 24° 291° (WNW) 15:25:22 434.975-435.025
MOZHAYETS 4 21 Jan 15:25:39 15:30:15 63° 101° (E) 15:34:48
CUBESAT XI-V 21 Jan 15:31:43 15:34:35 16° 93° (E) 15:37:26 437.345
BEESAT 21 Jan 15:39:53 15:44:31 47° 100° (E) 15:49:07 436.000
SRMSAT 21 Jan 15:49:17 15:52:52 16° 185° (S) 15:56:28 437.500
M-CUBED/EXP-1 PRIME 21 Jan 16:02:04 16:06:20 53° 70° (ENE) 16:10:22 437.505
NO-84 21 Jan 16:13:05 16:16:06 36° 129° (SE) 16:18:56 435.350 FM
AO-7 21 Jan 16:14:30 16:21:48 33° 262° (W) 16:29:10 .
DOVE 4 21 Jan 16:23:45 16:28:03 71° 77° (ENE) 16:32:13 437.250
CUTE-I 21 Jan 16:37:51 16:40:29 14° 63° (ENE) 16:43:08 437.470
ITAMSAT 1 21 Jan 16:37:55 16:41:44 21° 265° (W) 16:45:33 435.822/435.867
ITUPSAT 1 21 Jan 16:38:26 16:42:57 41° 289° (WNW) 16:47:26 437.325
LilacSat-2 21 Jan 16:39:46 16:41:26 13° 68° (ENE) 16:43:08 437.200
XW-2C 21 Jan 16:41:18 16:42:45 12° 67° (ENE) 16:44:11 145.795 - 145.815
RS-15 21 Jan 16:50:43 17:02:04 52° 51° (NE) 17:12:48 29.354- 29.394
KKS-1 21 Jan 16:51:02 16:53:42 15° 94° (E) 16:56:19 437.445
MOZHAYETS 4 21 Jan 17:05:16 17:06:48 11° 296° (WNW) 17:08:18
CUBESAT XI-V 21 Jan 17:07:47 17:12:05 40° 287° (WNW) 17:16:22 437.345
KAITUO 1B 21 Jan 17:12:26 17:15:12 20° 70° (ENE) 17:17:58 145.475/437.950
XW-2F 21 Jan 17:14:52 17:18:10 28° 72° (ENE) 17:21:27 145.980 - 146.000
BEESAT 21 Jan 17:18:55 17:21:51 16° 295° (WNW) 17:24:46 436.000
NUDT-PHONESAT 21 Jan 17:21:44 17:24:46 24° 71° (ENE) 17:27:47 437.300
XW-2D 21 Jan 17:24:49 17:28:28 44° 74° (ENE) 17:32:07 145.860 - 145.880
HO-68 21 Jan 17:27:12 17:33:03 28° 63° (ENE) 17:38:54 435.675
CUTE 1.7 + AOD 2 21 Jan 17:29:37 17:31:42 13° 67° (ENE) 17:33:46 437.475
M-CUBED/EXP-1 PRIME 21 Jan 17:39:18 17:40:48 12° 261° (W) 17:42:19 437.505
SRMSAT 21 Jan 17:40:05 17:41:16 11° 194° (SSW) 17:42:26 437.500
XW-2B 21 Jan 17:42:16 17:46:05 73° 77° (ENE) 17:49:54 145.730 - 145.750
CUBEBUG 2 21 Jan 17:49:06 17:51:33 15° 66° (ENE) 17:54:01 437.445
NO-84 21 Jan 17:51:28 17:53:20 15° 323° (NW) 17:55:09 435.350 FM
LilacSat-2 21 Jan 18:11:42 18:15:18 38° 261° (W) 18:18:56 437.200
XW-2C 21 Jan 18:12:53 18:16:30 40° 261° (W) 18:20:08 145.795 - 145.815
CUTE-I 21 Jan 18:14:38 18:19:55 67° 258° (WSW) 18:25:13 437.470
PCSat 21 Jan 18:20:36 18:24:53 23° 52° (NE) 18:29:08 145.827
KKS-1 21 Jan 18:26:11 18:30:22 40° 288° (WNW) 18:34:32 437.445
AAUSAT CUBESAT 2 21 Jan 18:29:51 18:32:15 15° 68° (ENE) 18:34:39 437.432
STARS 21 Jan 18:39:35 18:44:01 78° 285° (WNW) 18:48:26 437.465
KAITUO 1B 21 Jan 18:46:01 18:49:00 22° 264° (W) 18:51:59 145.475/437.950
STRAND 1 21 Jan 18:47:19 18:50:23 16° 93° (E) 18:53:26 437.568
SEEDS 21 Jan 18:48:41 18:52:52 67° 76° (ENE) 18:57:03 437.485
XW-2F 21 Jan 18:49:55 18:52:15 16° 266° (W) 18:54:35 145.980 - 146.000
BEESAT 3 21 Jan 18:51:54 18:55:49 79° 60° (ENE) 18:59:38 437.485
Oscar 11 21 Jan 18:54:37 18:55:56 11° 65° (ENE) 18:57:15 .
NUDT-PHONESAT 21 Jan 18:55:55 18:58:30 18° 265° (W) 19:01:06 437.300
XW-2D 21 Jan 19:02:40 19:02:48 10° 268° (W) 19:02:57 145.860 - 145.880
XW-2A 21 Jan 19:03:00 19:05:54 27° 73° (ENE) 19:08:50 145.665 - 145.685
CUTE 1.7 + AOD 2 21 Jan 19:03:00 19:07:06 45° 261° (W) 19:11:12 437.475
RS-15 21 Jan 19:03:42 19:14:09 43° 253° (WSW) 19:24:12 29.354- 29.394
HO-68 21 Jan 19:13:29 19:20:23 51° 259° (W) 19:27:19 435.675
CUBEBUG 2 21 Jan 19:23:33 19:27:41 44° 262° (W) 19:32:00 437.445
UWE-3 21 Jan 19:26:47 19:31:10 78° 257° (WSW) 19:35:43 435.000/436.395/437.385
BEESAT 2 21 Jan 19:41:51 19:45:50 69° 59° (ENE) 19:49:45 435.950
ZACube-1 21 Jan 19:48:29 19:52:54 88° 258° (WSW) 19:57:27 437.345
nSIGHT-1 21 Jan 19:54:17 19:57:24 66° 136° (SE) 20:00:33 .
AO-73 21 Jan 19:54:42 19:59:07 86° 255° (WSW) 20:03:40 145.935
AO-85 21 Jan 20:01:04 20:04:48 21° 50° (NE) 20:08:41 145.980
PCSat 21 Jan 20:03:18 20:08:28 45° 249° (WSW) 20:13:35 145.827
AAUSAT CUBESAT 2 21 Jan 20:03:32 20:07:21 36° 262° (W) 20:11:11 437.432
ISS 21 Jan 20:10:57 20:14:10 64° 136° (SE) 20:17:24 437.550
STRAND 1 21 Jan 20:24:49 20:29:48 52° 287° (WNW) 20:34:46 437.568
Oscar 11 21 Jan 20:27:15 20:31:31 57° 260° (W) 20:35:50 .
DELFI C3 21 Jan 20:32:21 20:35:29 23° 71° (ENE) 20:38:37 145.870
FO-29 21 Jan 20:36:05 20:41:16 78° 102° (ESE) 20:46:37 435.910
XW-2A 21 Jan 20:37:01 20:38:36 13° 266° (W) 20:40:12 145.665 - 145.685
Max Valier Satellite 21 Jan 20:59:50 21:03:11 32° 73° (ENE) 21:06:32 145.860
EO-88 21 Jan 21:16:25 21:19:43 32° 73° (ENE) 21:23:01 145.990 - 145.960
nSIGHT-1 21 Jan 21:32:02 21:33:51 14° 332° (NNW) 21:35:41 .
AO-85 21 Jan 21:40:33 21:45:29 52° 244° (WSW) 21:50:38 145.980
ISS 21 Jan 21:48:53 21:50:55 15° 332° (NNW) 21:52:57 437.550
TIGRISAT 21 Jan 21:53:29 21:58:04 50° 99° (E) 22:02:35 435.000
YUBILEINY 21 Jan 21:59:23 22:05:59 24° 82° (E) 22:12:34 435.215
PRISM 21 Jan 22:05:11 22:06:46 12° 93° (E) 22:08:21 437.425
DELFI C3 21 Jan 22:07:12 22:10:07 20° 265° (W) 22:13:02 145.870
UNISAT 6 21 Jan 22:08:57 22:13:41 83° 102° (ESE) 22:18:21 437.425
FO-29 21 Jan 22:24:55 22:25:42 10° 299° (WNW) 22:26:30 435.910
LO-87 21 Jan 22:32:35 22:35:48 33° 73° (ENE) 22:39:03 145.935 - 145.965
Max Valier Satellite 21 Jan 22:35:13 22:37:03 13° 267° (W) 22:38:53 145.860
ESTCUBE 1 21 Jan 22:49:56 22:54:17 48° 74° (ENE) 22:58:39 437.505/2401.250
EO-88 21 Jan 22:51:52 22:53:24 12° 267° (W) 22:54:58 145.990 - 145.960
EO-79 21 Jan 23:21:34 23:23:36 13° 93° (E) 23:25:37 145.935-145.965
TIGRISAT 21 Jan 23:31:38 23:34:16 15° 294° (WNW) 23:36:53 435.000
PRISM 21 Jan 23:38:19 23:42:11 43° 287° (WNW) 23:46:03 437.425
AIST 2D 21 Jan 23:40:51 23:44:19 81° 282° (WNW) 23:47:46 435.315
YUBILEINY 21 Jan 23:53:17 00:02:00 63° 280° (W) 00:10:44 435.215
POLYITAN 1 21 Jan 23:55:15 23:59:10 33° 98° (E) 00:03:01 437.675
LO-87 22 Jan 00:08:10 00:09:17 11° 267° (W) 00:10:24 145.935 - 145.965
NANOSAT C BR1 22 Jan 00:09:42 00:13:47 43° 99° (E) 00:17:50 145.865
SPROUT 22 Jan 00:09:55 00:14:08 88° 86° (E) 00:18:26 437.525
VELOX 1 22 Jan 00:21:09 00:25:28 62° 75° (ENE) 00:29:48 145.980
NO-84 22 Jan 00:24:23 00:27:15 65° 47° (NE) 00:30:15 435.350 FM
QB50P2 22 Jan 00:24:45 00:29:03 89° 80° (E) 00:33:19 145.880/145.840
ESTCUBE 1 22 Jan 00:29:09 00:31:17 13° 268° (W) 00:33:26 437.505/2401.250
DX 1 22 Jan 00:35:47 00:38:23 16° 67° (ENE) 00:41:00 434.975-435.025
O/OREOS (USA 219) 22 Jan 00:39:43 00:44:13 69° 292° (WNW) 00:48:42 437.305
DUCHIFAT 1 22 Jan 00:52:41 00:56:54 64° 284° (WNW) 01:01:05 145.980
EO-79 22 Jan 00:55:27 00:59:31 43° 287° (WNW) 01:03:34 145.935-145.965
50 SAT 22 Jan 01:13:17 01:16:00 29° 73° (ENE) 01:18:44 437.505
AO-91 22 Jan 01:31:29 01:36:00 50° 100° (E) 01:40:55 145.960
POLYITAN 1 22 Jan 01:31:44 01:34:37 18° 292° (WNW) 01:37:31 437.675
NANOSAT C BR1 22 Jan 01:46:51 01:49:04 14° 294° (WNW) 01:51:16 145.865
BUGSAT 1 22 Jan 01:49:33 01:53:47 67° 284° (WNW) 01:57:59 437.445
UKube-1 22 Jan 01:55:29 01:59:47 79° 74° (ENE) 02:04:05 .
Gurwin Techsat 1B 22 Jan 01:58:58 02:04:12 56° 101° (E) 02:09:24 435.225
Oscar 19 22 Jan 02:04:00 02:09:12 86° 104° (ESE) 02:14:19 437.125/150
ITUPSAT 1 22 Jan 02:06:15 02:09:06 16° 65° (ENE) 02:11:56 437.325
DX 1 22 Jan 02:10:10 02:14:13 39° 261° (W) 02:18:17 434.975-435.025
nSIGHT-1 22 Jan 02:23:32 02:26:05 22° 32° (NNE) 02:28:39 .
MOZHAYETS 4 22 Jan 02:24:20 02:28:41 42° 73° (ENE) 02:33:04
AO-7 22 Jan 02:27:49 02:32:54 17° 93° (E) 02:37:56 .
CUBESAT XI-V 22 Jan 02:33:14 02:35:11 13° 65° (ENE) 02:37:09 437.345
FALCONSAT 3 22 Jan 02:34:14 02:36:41 17° 151° (SSE) 02:39:08 435.103
ISS 22 Jan 02:41:27 02:44:08 23° 32° (NNE) 02:46:48 437.550
BEESAT 22 Jan 02:43:17 02:47:41 39° 72° (ENE) 02:52:07 436.000
AO-91 22 Jan 03:09:20 03:12:07 16° 291° (WNW) 03:15:02 145.960
ITAMSAT 1 22 Jan 03:14:02 03:17:29 18° 94° (E) 03:20:56 435.822/435.867
Gurwin Techsat 1B 22 Jan 03:40:23 03:43:38 17° 296° (WNW) 03:46:51 435.225
ITUPSAT 1 22 Jan 03:41:52 03:46:28 48° 260° (W) 03:51:07 437.325
Oscar 19 22 Jan 03:47:06 03:47:42 10° 299° (WNW) 03:48:18 437.125/150
KKS-1 22 Jan 03:48:19 03:49:07 10° 64° (ENE) 03:49:55 437.445
nSIGHT-1 22 Jan 03:59:25 04:02:17 31° 228° (SW) 04:05:08 .
MOZHAYETS 4 22 Jan 04:03:10 04:05:59 16° 267° (W) 04:08:49
CUBESAT XI-V 22 Jan 04:07:22 04:12:00 60° 260° (W) 04:16:38 437.345
FALCONSAT 3 22 Jan 04:11:46 04:15:22 55° 165° (SSE) 04:18:58 435.103
ISS 22 Jan 04:17:40 04:20:38 32° 228° (SW) 04:23:35 437.550
AO-7 22 Jan 04:18:02 04:26:26 84° 288° (WNW) 04:34:46 .
BEESAT 22 Jan 04:22:18 04:25:33 18° 266° (W) 04:28:49 436.000
DOVE 4 22 Jan 04:25:05 04:28:39 23° 96° (E) 04:32:22 437.250
